{"data":{"norad_id":53687,"epoch":"2026-09-20T23:13:22.361088Z","epoch_age_seconds":41271,"freshness":"FRESH","line1":"1 53687U 22105AR  26263.96761992  .00000822  00000+0  27778-4 0  9993","line2":"2 53687  97.2845 140.6823 0001828  88.8508 271.2944 15.33437001222817","mean_motion":15.33437001,"eccentricity":0.0001828,"inclination_deg":97.2845,"raan_deg":140.6823,"arg_perigee_deg":88.8508,"mean_anomaly_deg":271.2944,"bstar":2.7778e-5,"rev_number":22281,"period_min":93.906694507889,"perigee_km":464.31594489137,"apogee_km":466.81800306425,"semimajor_km":6843.7039739778,"source":"CELESTRAK","updated_at":"2026-09-21T09:00:32.979923Z"}}